Time,TemperatureF,DewpointF,PressureIn,WindDirection,WindDirectionDegrees,WindSpeedMPH,WindSpeedGustMPH,Humidity,HourlyPrecipIn,Conditions,Clouds,dailyrainin,SoftwareType,DateUTC
2013-06-02 00:00:00,76.9,68.0,29.88,SSW,200,2.0,0.0,75,0.00,,,0.00,oem by Ross Wheeler,2013-06-02 04:00:00,
2013-06-02 00:05:00,76.8,68.0,29.88,WSW,243,8.0,0.0,75,0.00,,,0.00,oem by Ross Wheeler,2013-06-02 04:05:00,
2013-06-02 00:10:00,76.8,69.0,29.88,WSW,239,1.0,0.0,76,0.00,,,0.00,oem by Ross Wheeler,2013-06-02 04:10:00,
2013-06-02 00:15:00,76.8,69.0,29.88,SSW,202,3.0,0.0,76,0.00,,,0.00,oem by Ross Wheeler,2013-06-02 04:15:00,
2013-06-02 00:25:00,76.6,69.0,29.88,SSW,205,0.0,0.0,76,0.00,,,0.00,oem by Ross Wheeler,2013-06-02 04:25:00,
2013-06-02 00:30:00,76.6,69.0,29.88,SSW,209,5.0,0.0,76,0.00,,,0.00,oem by Ross Wheeler,2013-06-02 04:30:00,
2013-06-02 00:40:00,76.4,69.0,29.88,SSW,206,0.0,0.0,77,0.00,,,0.00,oem by Ross Wheeler,2013-06-02 04:40:00,
2013-06-02 00:45:00,76.2,69.0,29.87,SSW,210,0.0,0.0,77,0.00,,,0.00,oem by Ross Wheeler,2013-06-02 04:45:00,
2013-06-02 00:55:00,76.0,68.0,29.87,SSW,207,1.0,0.0,77,0.00,,,0.00,oem by Ross Wheeler,2013-06-02 04:55:00,
2013-06-02 01:00:00,75.9,69.0,29.87,South,175,5.0,0.0,78,0.00,,,0.00,oem by Ross Wheeler,2013-06-02 05:00:00,
2013-06-02 01:10:00,75.7,68.0,29.87,SW,224,0.0,0.0,78,0.00,,,0.00,oem by Ross Wheeler,2013-06-02 05:10:00,
2013-06-02 01:15:00,75.7,68.0,29.87,SSW,193,1.0,0.0,78,0.00,,,0.00,oem by Ross Wheeler,2013-06-02 05:15:00,
2013-06-02 01:25:00,75.5,68.0,29.87,ESE,121,1.0,0.0,78,0.00,,,0.00,oem by Ross Wheeler,2013-06-02 05:25:00,
2013-06-02 01:30:00,75.3,68.0,29.86,SSW,205,1.0,0.0,78,0.00,,,0.00,oem by Ross Wheeler,2013-06-02 05:30:00,
2013-06-02 01:35:00,75.3,68.0,29.86,SSW,192,2.0,0.0,78,0.00,,,0.00,oem by Ross Wheeler,2013-06-02 05:35:00,
2013-06-02 01:40:00,75.2,68.0,29.86,SSW,193,0.0,0.0,79,0.00,,,0.00,oem by Ross Wheeler,2013-06-02 05:40:00,
2013-06-02 01:45:00,75.2,68.0,29.86,SSW,212,4.0,0.0,79,0.00,,,0.00,oem by Ross Wheeler,2013-06-02 05:45:00,
2013-06-02 01:55:00,75.0,68.0,29.86,SW,220,2.0,0.0,79,0.00,,,0.00,oem by Ross Wheeler,2013-06-02 05:55:00,
2013-06-02 02:00:00,74.8,68.0,29.86,SW,226,1.0,0.0,79,0.00,,,0.00,oem by Ross Wheeler,2013-06-02 06:00:00,
2013-06-02 02:10:00,74.8,68.0,29.86,SW,229,5.0,0.0,78,0.00,,,0.00,oem by Ross Wheeler,2013-06-02 06:10:00,
2013-06-02 02:15:00,74.6,67.0,29.85,SSW,213,1.0,0.0,78,0.00,,,0.00,oem by Ross Wheeler,2013-06-02 06:15:00,
2013-06-02 02:25:00,74.6,67.0,29.85,SSW,213,2.0,0.0,78,0.00,,,0.00,oem by Ross Wheeler,2013-06-02 06:25:00,
2013-06-02 02:30:00,74.5,67.0,29.85,SSW,192,0.0,0.0,78,0.00,,,0.00,oem by Ross Wheeler,2013-06-02 06:30:00,
2013-06-02 02:40:00,74.5,67.0,29.85,SW,215,2.0,0.0,78,0.00,,,0.00,oem by Ross Wheeler,2013-06-02 06:40:00,
2013-06-02 02:45:00,74.3,67.0,29.85,South,181,5.0,0.0,78,0.00,,,0.00,oem by Ross Wheeler,2013-06-02 06:45:00,
2013-06-02 02:55:00,74.3,67.0,29.85,WSW,241,1.0,0.0,78,0.00,,,0.00,oem by Ross Wheeler,2013-06-02 06:55:00,
2013-06-02 03:00:00,74.1,67.0,29.84,SSW,203,5.0,0.0,78,0.00,,,0.00,oem by Ross Wheeler,2013-06-02 07:00:00,
2013-06-02 03:10:00,73.9,67.0,29.84,WSW,240,6.0,0.0,79,0.00,,,0.00,oem by Ross Wheeler,2013-06-02 07:10:00,
2013-06-02 03:15:00,73.8,67.0,29.84,South,186,1.0,0.0,79,0.00,,,0.00,oem by Ross Wheeler,2013-06-02 07:15:00,
2013-06-02 03:25:00,73.8,67.0,29.84,South,188,4.0,0.0,79,0.00,,,0.00,oem by Ross Wheeler,2013-06-02 07:25:00,
2013-06-02 03:30:00,73.6,67.0,29.84,SW,216,0.0,0.0,79,0.00,,,0.00,oem by Ross Wheeler,2013-06-02 07:30:00,
2013-06-02 03:40:00,73.6,67.0,29.84,SW,215,0.0,0.0,79,0.00,,,0.00,oem by Ross Wheeler,2013-06-02 07:40:00,
2013-06-02 03:45:00,73.6,67.0,29.84,SW,226,2.0,0.0,79,0.00,,,0.00,oem by Ross Wheeler,2013-06-02 07:45:00,
2013-06-02 03:55:00,73.4,67.0,29.84,SW,231,0.0,0.0,79,0.00,,,0.00,oem by Ross Wheeler,2013-06-02 07:55:00,
2013-06-02 04:00:00,73.4,67.0,29.84,South,183,1.0,0.0,79,0.00,,,0.00,oem by Ross Wheeler,2013-06-02 08:00:00,
2013-06-02 04:10:00,73.2,66.0,29.84,SW,216,2.0,0.0,79,0.00,,,0.00,oem by Ross Wheeler,2013-06-02 08:10:00,
2013-06-02 04:15:00,73.2,67.0,29.84,WSW,247,7.0,0.0,80,0.00,,,0.00,oem by Ross Wheeler,2013-06-02 08:15:00,
2013-06-02 04:25:00,73.1,67.0,29.84,South,186,2.0,0.0,80,0.00,,,0.00,oem by Ross Wheeler,2013-06-02 08:25:00,
2013-06-02 04:30:00,73.1,67.0,29.84,SW,227,8.0,0.0,80,0.00,,,0.00,oem by Ross Wheeler,2013-06-02 08:30:00,
2013-06-02 04:40:00,72.9,66.0,29.84,SSW,202,2.0,0.0,80,0.00,,,0.00,oem by Ross Wheeler,2013-06-02 08:40:00,
2013-06-02 04:45:00,72.9,66.0,29.84,SSW,192,0.0,0.0,80,0.00,,,0.00,oem by Ross Wheeler,2013-06-02 08:45:00,
2013-06-02 04:55:00,72.7,67.0,29.84,SSE,168,2.0,0.0,81,0.00,,,0.00,oem by Ross Wheeler,2013-06-02 08:55:00,
2013-06-02 05:01:00,72.7,67.0,29.84,SSW,198,2.0,0.0,81,0.00,,,0.00,oem by Ross Wheeler,2013-06-02 09:01:00,
2013-06-02 05:10:00,72.5,66.0,29.84,SSW,202,0.0,0.0,81,0.00,,,0.00,oem by Ross Wheeler,2013-06-02 09:10:00,
2013-06-02 05:15:00,72.4,67.0,29.83,SSW,203,5.0,0.0,82,0.00,,,0.00,oem by Ross Wheeler,2013-06-02 09:15:00,
2013-06-02 05:25:00,72.4,67.0,29.83,SSW,212,3.0,0.0,82,0.00,,,0.00,oem by Ross Wheeler,2013-06-02 09:25:00,
2013-06-02 05:30:00,72.2,66.0,29.83,SW,215,7.0,0.0,82,0.00,,,0.00,oem by Ross Wheeler,2013-06-02 09:30:00,
2013-06-02 05:40:00,72.2,67.0,29.83,SW,215,0.0,0.0,83,0.00,,,0.00,oem by Ross Wheeler,2013-06-02 09:40:00,
2013-06-02 05:45:00,72.0,67.0,29.83,SW,231,0.0,0.0,83,0.00,,,0.00,oem by Ross Wheeler,2013-06-02 09:45:00,
2013-06-02 05:55:00,72.0,67.0,29.83,South,182,1.0,0.0,83,0.00,,,0.00,oem by Ross Wheeler,2013-06-02 09:55:00,
2013-06-02 06:00:00,71.9,67.0,29.83,SSW,200,0.0,0.0,84,0.00,,,0.00,oem by Ross Wheeler,2013-06-02 10:00:00,
2013-06-02 06:10:00,71.9,67.0,29.83,South,174,0.0,0.0,84,0.00,,,0.00,oem by Ross Wheeler,2013-06-02 10:10:00,
2013-06-02 06:15:00,72.0,67.0,29.83,WSW,253,4.0,0.0,84,0.00,,,0.00,oem by Ross Wheeler,2013-06-02 10:15:00,
2013-06-02 06:25:00,72.2,67.0,29.83,South,179,3.0,0.0,84,0.00,,,0.00,oem by Ross Wheeler,2013-06-02 10:25:00,
2013-06-02 06:30:00,72.2,67.0,29.83,SSW,212,6.0,0.0,84,0.00,,,0.00,oem by Ross Wheeler,2013-06-02 10:30:00,
2013-06-02 06:40:00,72.5,67.0,29.83,SW,219,3.0,0.0,83,0.00,,,0.00,oem by Ross Wheeler,2013-06-02 10:40:00,
2013-06-02 06:45:00,72.7,67.0,29.83,SSW,200,5.0,0.0,83,0.00,,,0.00,oem by Ross Wheeler,2013-06-02 10:45:00,
2013-06-02 06:55:00,72.9,67.0,29.83,SSW,198,4.0,0.0,82,0.00,,,0.00,oem by Ross Wheeler,2013-06-02 10:55:00,
2013-06-02 07:00:00,73.1,67.0,29.83,SW,224,3.0,0.0,82,0.00,,,0.00,oem by Ross Wheeler,2013-06-02 11:00:00,
2013-06-02 07:10:00,73.4,67.0,29.83,SW,229,5.0,0.0,81,0.00,,,0.00,oem by Ross Wheeler,2013-06-02 11:10:00,
2013-06-02 07:15:00,73.6,67.0,29.83,SSW,213,6.0,0.0,80,0.00,,,0.00,oem by Ross Wheeler,2013-06-02 11:15:00,
2013-06-02 07:25:00,73.9,67.0,29.83,SSW,195,5.0,0.0,79,0.00,,,0.00,oem by Ross Wheeler,2013-06-02 11:25:00,
2013-06-02 07:30:00,74.1,67.0,29.84,South,191,2.0,0.0,79,0.00,,,0.00,oem by Ross Wheeler,2013-06-02 11:30:00,
2013-06-02 07:40:00,74.5,67.0,29.84,SW,220,0.0,0.0,78,0.00,,,0.00,oem by Ross Wheeler,2013-06-02 11:40:00,
2013-06-02 07:45:00,74.6,67.0,29.83,SSW,206,4.0,0.0,78,0.00,,,0.00,oem by Ross Wheeler,2013-06-02 11:45:00,
2013-06-02 07:55:00,75.0,67.0,29.83,SSW,192,1.0,0.0,77,0.00,,,0.00,oem by Ross Wheeler,2013-06-02 11:55:00,
2013-06-02 08:00:00,75.3,67.0,29.83,WSW,239,2.0,0.0,76,0.00,,,0.00,oem by Ross Wheeler,2013-06-02 12:00:00,
2013-06-02 08:10:00,75.7,67.0,29.83,SSW,199,3.0,0.0,75,0.00,,,0.00,oem by Ross Wheeler,2013-06-02 12:10:00,
2013-06-02 08:15:00,76.0,68.0,29.83,SW,230,2.0,0.0,75,0.00,,,0.00,oem by Ross Wheeler,2013-06-02 12:15:00,
2013-06-02 08:25:00,76.4,67.0,29.83,South,181,3.0,0.0,73,0.00,,,0.00,oem by Ross Wheeler,2013-06-02 12:25:00,
2013-06-02 08:30:00,76.6,68.0,29.83,WSW,243,8.0,0.0,74,0.00,,,0.00,oem by Ross Wheeler,2013-06-02 12:30:00,
2013-06-02 08:40:00,76.8,68.0,29.83,South,181,0.0,0.0,73,0.00,,,0.00,oem by Ross Wheeler,2013-06-02 12:40:00,
2013-06-02 08:45:00,76.9,67.0,29.83,South,188,9.0,0.0,72,0.00,,,0.00,oem by Ross Wheeler,2013-06-02 12:45:00,
2013-06-02 08:55:00,77.3,68.0,29.83,SW,231,3.0,0.0,72,0.00,,,0.00,oem by Ross Wheeler,2013-06-02 12:55:00,
2013-06-02 09:00:00,77.5,68.0,29.82,SW,233,7.0,0.0,72,0.00,,,0.00,oem by Ross Wheeler,2013-06-02 13:00:00,
2013-06-02 09:10:00,78.0,67.0,29.82,SW,216,3.0,0.0,70,0.00,,,0.00,oem by Ross Wheeler,2013-06-02 13:10:00,
2013-06-02 09:15:00,78.2,68.0,29.82,NW,308,4.0,0.0,70,0.00,,,0.00,oem by Ross Wheeler,2013-06-02 13:15:00,
2013-06-02 09:25:00,78.8,68.0,29.82,West,271,5.0,0.0,69,0.00,,,0.00,oem by Ross Wheeler,2013-06-02 13:25:00,
2013-06-02 09:31:00,79.0,68.0,29.81,SSW,196,4.0,0.0,69,0.00,,,0.00,oem by Ross Wheeler,2013-06-02 13:31:00,
2013-06-02 09:40:00,79.3,67.0,29.81,SSW,196,14.0,0.0,67,0.00,,,0.00,oem by Ross Wheeler,2013-06-02 13:40:00,
2013-06-02 09:45:00,79.5,67.0,29.81,SSW,205,6.0,0.0,66,0.00,,,0.00,oem by Ross Wheeler,2013-06-02 13:45:00,
2013-06-02 09:55:00,79.9,68.0,29.81,SW,222,6.0,0.0,66,0.00,,,0.00,oem by Ross Wheeler,2013-06-02 13:55:00,
2013-06-02 10:00:00,80.3,67.0,29.81,WNW,287,1.0,0.0,65,0.00,,,0.00,oem by Ross Wheeler,2013-06-02 14:00:00,
2013-06-02 10:10:00,80.4,68.0,29.81,WSW,243,1.0,0.0,66,0.00,,,0.00,oem by Ross Wheeler,2013-06-02 14:10:00,
2013-06-02 10:16:00,80.6,67.0,29.81,SW,231,7.0,0.0,64,0.00,,,0.00,oem by Ross Wheeler,2013-06-02 14:16:00,
2013-06-02 10:25:00,81.0,68.0,29.81,SW,215,7.0,0.0,64,0.00,,,0.00,oem by Ross Wheeler,2013-06-02 14:25:00,
2013-06-02 10:30:00,81.4,68.0,29.81,SW,226,6.0,0.0,63,0.00,,,0.00,oem by Ross Wheeler,2013-06-02 14:30:00,
2013-06-02 10:40:00,81.8,68.0,29.81,SSW,195,3.0,0.0,63,0.00,,,0.00,oem by Ross Wheeler,2013-06-02 14:40:00,
2013-06-02 10:45:00,82.0,68.0,29.81,South,175,12.0,0.0,63,0.00,,,0.00,oem by Ross Wheeler,2013-06-02 14:45:00,
2013-06-02 10:55:00,82.2,68.0,29.81,West,260,6.0,0.0,62,0.00,,,0.00,oem by Ross Wheeler,2013-06-02 14:55:00,
2013-06-02 11:00:00,82.6,69.0,29.81,WSW,250,0.0,0.0,64,0.00,,,0.00,oem by Ross Wheeler,2013-06-02 15:00:00,
2013-06-02 11:10:00,83.2,68.0,29.81,South,188,11.0,0.0,61,0.00,,,0.00,oem by Ross Wheeler,2013-06-02 15:10:00,
2013-06-02 11:15:00,83.3,68.0,29.81,SW,217,10.0,0.0,60,0.00,,,0.00,oem by Ross Wheeler,2013-06-02 15:15:00,
2013-06-02 11:25:00,84.3,68.0,29.81,SW,220,2.0,0.0,59,0.00,,,0.00,oem by Ross Wheeler,2013-06-02 15:25:00,
2013-06-02 11:30:00,85.1,69.0,29.80,SSW,213,5.0,0.0,58,0.00,,,0.00,oem by Ross Wheeler,2013-06-02 15:30:00,
2013-06-02 11:40:00,86.2,70.0,29.80,West,272,3.0,0.0,58,0.00,,,0.00,oem by Ross Wheeler,2013-06-02 15:40:00,
2013-06-02 11:45:00,86.4,68.0,29.81,SW,224,4.0,0.0,55,0.00,,,0.00,oem by Ross Wheeler,2013-06-02 15:45:00,
2013-06-02 11:55:00,87.0,68.0,29.81,WNW,287,2.0,0.0,53,0.00,,,0.00,oem by Ross Wheeler,2013-06-02 15:55:00,
2013-06-02 12:00:00,87.6,68.0,29.81,WSW,254,5.0,0.0,53,0.00,,,0.00,oem by Ross Wheeler,2013-06-02 16:00:00,
2013-06-02 12:10:00,87.4,69.0,29.81,South,179,9.0,0.0,55,0.00,,,0.00,oem by Ross Wheeler,2013-06-02 16:10:00,
2013-06-02 12:15:00,87.8,71.0,29.80,SSW,202,2.0,0.0,57,0.00,,,0.00,oem by Ross Wheeler,2013-06-02 16:15:00,
2013-06-02 12:25:00,88.0,70.0,29.80,SW,234,5.0,0.0,55,0.00,,,0.00,oem by Ross Wheeler,2013-06-02 16:25:00,
2013-06-02 12:31:00,88.0,69.0,29.80,SW,231,10.0,0.0,54,0.00,,,0.00,oem by Ross Wheeler,2013-06-02 16:31:00,
2013-06-02 12:40:00,88.5,69.0,29.80,SSE,147,2.0,0.0,53,0.00,,,0.00,oem by Ross Wheeler,2013-06-02 16:40:00,
2013-06-02 12:45:00,88.7,68.0,29.80,SSW,209,4.0,0.0,51,0.00,,,0.00,oem by Ross Wheeler,2013-06-02 16:45:00,
2013-06-02 12:55:00,89.1,70.0,29.80,SW,219,6.0,0.0,54,0.00,,,0.00,oem by Ross Wheeler,2013-06-02 16:55:00,
2013-06-02 13:00:00,89.1,69.0,29.79,WSW,237,3.0,0.0,52,0.00,,,0.00,oem by Ross Wheeler,2013-06-02 17:00:00,
2013-06-02 13:10:00,89.5,70.0,29.79,West,261,7.0,0.0,52,0.00,,,0.00,oem by Ross Wheeler,2013-06-02 17:10:00,
2013-06-02 13:15:00,89.3,69.0,29.79,SW,215,5.0,0.0,52,0.00,,,0.00,oem by Ross Wheeler,2013-06-02 17:15:00,
2013-06-02 13:25:00,89.1,69.0,29.79,SSW,198,11.0,0.0,51,0.00,,,0.00,oem by Ross Wheeler,2013-06-02 17:25:00,
2013-06-02 13:30:00,89.3,70.0,29.78,SE,137,2.0,0.0,54,0.00,,,0.00,oem by Ross Wheeler,2013-06-02 17:30:00,
2013-06-02 13:40:00,89.9,68.0,29.78,SW,226,3.0,0.0,49,0.00,,,0.00,oem by Ross Wheeler,2013-06-02 17:40:00,
2013-06-02 13:45:00,89.7,69.0,29.78,WSW,239,7.0,0.0,51,0.00,,,0.00,oem by Ross Wheeler,2013-06-02 17:45:00,
2013-06-02 13:55:00,89.9,69.0,29.78,SW,227,6.0,0.0,50,0.00,,,0.00,oem by Ross Wheeler,2013-06-02 17:55:00,
2013-06-02 14:00:00,90.2,69.0,29.77,SW,222,3.0,0.0,50,0.00,,,0.00,oem by Ross Wheeler,2013-06-02 18:00:00,
2013-06-02 14:10:00,90.4,68.0,29.77,SW,226,11.0,0.0,47,0.00,,,0.00,oem by Ross Wheeler,2013-06-02 18:10:00,
2013-06-02 14:15:00,90.2,70.0,29.76,WSW,237,2.0,0.0,52,0.00,,,0.00,oem by Ross Wheeler,2013-06-02 18:15:00,
2013-06-02 14:25:00,89.5,68.0,29.76,SSW,212,13.0,0.0,49,0.00,,,0.00,oem by Ross Wheeler,2013-06-02 18:25:00,
2013-06-02 14:30:00,89.5,69.0,29.76,SSW,207,6.0,0.0,51,0.00,,,0.00,oem by Ross Wheeler,2013-06-02 18:30:00,
2013-06-02 14:40:00,88.5,69.0,29.76,South,189,2.0,0.0,52,0.00,,,0.00,oem by Ross Wheeler,2013-06-02 18:40:00,
2013-06-02 14:45:00,88.2,69.0,29.76,SSW,207,6.0,0.0,53,0.00,,,0.00,oem by Ross Wheeler,2013-06-02 18:45:00,
2013-06-02 14:55:00,88.0,68.0,29.76,SSE,162,6.0,0.0,52,0.00,,,0.00,oem by Ross Wheeler,2013-06-02 18:55:00,
2013-06-02 15:00:00,88.0,68.0,29.76,WSW,239,2.0,0.0,52,0.00,,,0.00,oem by Ross Wheeler,2013-06-02 19:00:00,
2013-06-02 15:10:00,87.8,67.0,29.76,SW,219,10.0,0.0,51,0.00,,,0.00,oem by Ross Wheeler,2013-06-02 19:10:00,
2013-06-02 15:15:00,87.6,68.0,29.76,SW,219,3.0,0.0,53,0.00,,,0.00,oem by Ross Wheeler,2013-06-02 19:15:00,
2013-06-02 15:25:00,87.6,69.0,29.76,SW,216,2.0,0.0,54,0.00,,,0.00,oem by Ross Wheeler,2013-06-02 19:25:00,
2013-06-02 15:30:00,88.0,69.0,29.75,South,186,5.0,0.0,54,0.00,,,0.00,oem by Ross Wheeler,2013-06-02 19:30:00,
2013-06-02 15:40:00,88.7,69.0,29.75,SW,234,1.0,0.0,53,0.00,,,0.00,oem by Ross Wheeler,2013-06-02 19:40:00,
2013-06-02 15:45:00,88.9,70.0,29.75,SSW,196,13.0,0.0,53,0.00,,,0.00,oem by Ross Wheeler,2013-06-02 19:45:00,
2013-06-02 15:55:00,88.7,68.0,29.75,WSW,247,7.0,0.0,51,0.00,,,0.00,oem by Ross Wheeler,2013-06-02 19:55:00,
2013-06-02 16:00:00,88.5,69.0,29.75,SSW,207,4.0,0.0,52,0.00,,,0.00,oem by Ross Wheeler,2013-06-02 20:00:00,
2013-06-02 16:10:00,88.5,68.0,29.75,SSW,213,8.0,0.0,50,0.00,,,0.00,oem by Ross Wheeler,2013-06-02 20:10:00,
2013-06-02 16:15:00,87.8,68.0,29.75,WNW,287,5.0,0.0,52,0.00,,,0.00,oem by Ross Wheeler,2013-06-02 20:15:00,
2013-06-02 16:25:00,87.4,67.0,29.75,SW,226,11.0,0.0,51,0.00,,,0.00,oem by Ross Wheeler,2013-06-02 20:25:00,
2013-06-02 16:31:00,87.8,69.0,29.74,SSW,207,10.0,0.0,53,0.00,,,0.00,oem by Ross Wheeler,2013-06-02 20:31:00,
2013-06-02 16:40:00,88.7,68.0,29.74,SW,230,6.0,0.0,51,0.00,,,0.00,oem by Ross Wheeler,2013-06-02 20:40:00,
2013-06-02 16:45:00,89.1,68.0,29.75,SW,229,2.0,0.0,50,0.00,,,0.00,oem by Ross Wheeler,2013-06-02 20:45:00,
2013-06-02 16:55:00,89.5,67.0,29.75,SSW,198,3.0,0.0,48,0.00,,,0.00,oem by Ross Wheeler,2013-06-02 20:55:00,
2013-06-02 17:00:00,89.1,66.0,29.74,WSW,240,10.0,0.0,46,0.00,,,0.00,oem by Ross Wheeler,2013-06-02 21:00:00,
2013-06-02 17:10:00,88.0,64.0,29.74,SSW,202,3.0,0.0,45,0.00,,,0.00,oem by Ross Wheeler,2013-06-02 21:10:00,
2013-06-02 17:15:00,87.4,64.0,29.75,SSW,207,3.0,0.0,46,0.00,,,0.00,oem by Ross Wheeler,2013-06-02 21:15:00,
2013-06-02 17:25:00,86.8,65.0,29.75,South,171,4.0,0.0,48,0.00,,,0.00,oem by Ross Wheeler,2013-06-02 21:25:00,
2013-06-02 17:30:00,86.6,65.0,29.74,SW,223,7.0,0.0,49,0.00,,,0.00,oem by Ross Wheeler,2013-06-02 21:30:00,
2013-06-02 17:40:00,86.2,64.0,29.74,SSW,203,5.0,0.0,47,0.00,,,0.00,oem by Ross Wheeler,2013-06-02 21:40:00,
2013-06-02 17:45:00,85.7,64.0,29.75,SW,233,6.0,0.0,48,0.00,,,0.00,oem by Ross Wheeler,2013-06-02 21:45:00,
2013-06-02 17:55:00,85.3,63.0,29.75,SW,227,3.0,0.0,48,0.00,,,0.00,oem by Ross Wheeler,2013-06-02 21:55:00,
2013-06-02 18:00:00,84.9,64.0,29.74,SSW,210,4.0,0.0,50,0.00,,,0.00,oem by Ross Wheeler,2013-06-02 22:00:00,
2013-06-02 18:10:00,84.7,63.0,29.74,SSW,199,5.0,0.0,49,0.00,,,0.00,oem by Ross Wheeler,2013-06-02 22:10:00,
2013-06-02 18:15:00,84.5,64.0,29.75,SSW,199,10.0,0.0,51,0.00,,,0.00,oem by Ross Wheeler,2013-06-02 22:15:00,
2013-06-02 18:25:00,84.3,65.0,29.75,SW,233,5.0,0.0,53,0.00,,,0.00,oem by Ross Wheeler,2013-06-02 22:25:00,
2013-06-02 18:30:00,84.1,66.0,29.75,West,261,8.0,0.0,54,0.00,,,0.00,oem by Ross Wheeler,2013-06-02 22:30:00,
2013-06-02 18:40:00,83.9,65.0,29.75,SSW,192,6.0,0.0,54,0.00,,,0.00,oem by Ross Wheeler,2013-06-02 22:40:00,
2013-06-02 18:45:00,83.7,65.0,29.75,SSW,209,2.0,0.0,54,0.00,,,0.00,oem by Ross Wheeler,2013-06-02 22:45:00,
2013-06-02 18:55:00,83.5,67.0,29.75,SW,217,2.0,0.0,57,0.00,,,0.00,oem by Ross Wheeler,2013-06-02 22:55:00,
2013-06-02 19:00:00,83.3,66.0,29.75,SSW,202,7.0,0.0,56,0.00,,,0.00,oem by Ross Wheeler,2013-06-02 23:00:00,
2013-06-02 19:10:00,83.2,67.0,29.75,South,189,7.0,0.0,58,0.00,,,0.00,oem by Ross Wheeler,2013-06-02 23:10:00,
2013-06-02 19:15:00,83.0,66.0,29.75,SSW,206,3.0,0.0,57,0.00,,,0.00,oem by Ross Wheeler,2013-06-02 23:15:00,
2013-06-02 19:25:00,82.6,66.0,29.75,South,176,8.0,0.0,58,0.00,,,0.00,oem by Ross Wheeler,2013-06-02 23:25:00,
2013-06-02 19:30:00,82.6,67.0,29.75,SSW,206,2.0,0.0,60,0.00,,,0.00,oem by Ross Wheeler,2013-06-02 23:30:00,
2013-06-02 19:40:00,82.2,66.0,29.75,SW,236,3.0,0.0,59,0.00,,,0.00,oem by Ross Wheeler,2013-06-02 23:40:00,
2013-06-02 19:45:00,82.2,67.0,29.75,SSW,213,2.0,0.0,60,0.00,,,0.00,oem by Ross Wheeler,2013-06-02 23:45:00,
2013-06-02 19:55:00,82.2,67.0,29.75,SW,236,5.0,0.0,61,0.00,,,0.00,oem by Ross Wheeler,2013-06-02 23:55:00,
2013-06-02 20:00:00,82.0,67.0,29.76,SW,219,3.0,0.0,61,0.00,,,0.00,oem by Ross Wheeler,2013-06-03 00:00:00,
2013-06-02 20:10:00,81.8,67.0,29.76,SSW,206,2.0,0.0,61,0.00,,,0.00,oem by Ross Wheeler,2013-06-03 00:10:00,
2013-06-02 20:15:00,81.8,67.0,29.76,SSW,196,1.0,0.0,61,0.00,,,0.00,oem by Ross Wheeler,2013-06-03 00:15:00,
2013-06-02 20:25:00,81.6,67.0,29.76,SSW,209,0.0,0.0,61,0.00,,,0.00,oem by Ross Wheeler,2013-06-03 00:25:00,
2013-06-02 20:30:00,81.4,67.0,29.76,SSW,206,2.0,0.0,62,0.00,,,0.00,oem by Ross Wheeler,2013-06-03 00:30:00,
2013-06-02 20:40:00,81.2,68.0,29.76,SSE,162,0.0,0.0,65,0.00,,,0.00,oem by Ross Wheeler,2013-06-03 00:40:00,
2013-06-02 20:45:00,80.8,69.0,29.77,SSE,158,0.0,0.0,67,0.00,,,0.00,oem by Ross Wheeler,2013-06-03 00:45:00,
2013-06-02 20:55:00,80.3,69.0,29.77,SSE,151,2.0,0.0,68,0.00,,,0.00,oem by Ross Wheeler,2013-06-03 00:55:00,
2013-06-02 21:00:00,79.9,68.0,29.78,SSW,203,2.0,0.0,68,0.00,,,0.00,oem by Ross Wheeler,2013-06-03 01:00:00,
2013-06-02 21:10:00,79.3,67.0,29.78,South,176,3.0,0.0,66,0.00,,,0.00,oem by Ross Wheeler,2013-06-03 01:10:00,
2013-06-02 21:15:00,78.8,66.0,29.78,SSE,161,5.0,0.0,64,0.00,,,0.00,oem by Ross Wheeler,2013-06-03 01:15:00,
2013-06-02 21:25:00,78.4,66.0,29.78,SW,216,0.0,0.0,65,0.00,,,0.00,oem by Ross Wheeler,2013-06-03 01:25:00,
2013-06-02 21:30:00,78.0,66.0,29.77,South,175,0.0,0.0,66,0.00,,,0.00,oem by Ross Wheeler,2013-06-03 01:30:00,
2013-06-02 21:40:00,77.8,66.0,29.77,South,185,0.0,0.0,68,0.00,,,0.00,oem by Ross Wheeler,2013-06-03 01:40:00,
2013-06-02 21:45:00,77.8,67.0,29.78,SW,219,3.0,0.0,69,0.00,,,0.00,oem by Ross Wheeler,2013-06-03 01:45:00,
2013-06-02 21:55:00,77.7,67.0,29.78,South,181,1.0,0.0,70,0.00,,,0.00,oem by Ross Wheeler,2013-06-03 01:55:00,
2013-06-02 22:00:00,77.7,68.0,29.79,SW,227,0.0,0.0,71,0.00,,,0.00,oem by Ross Wheeler,2013-06-03 02:00:00,
2013-06-02 22:10:00,77.7,68.0,29.79,SSW,199,0.0,0.0,73,0.00,,,0.00,oem by Ross Wheeler,2013-06-03 02:10:00,
2013-06-02 22:15:00,77.3,69.0,29.80,SW,231,1.0,0.0,76,0.00,,,0.00,oem by Ross Wheeler,2013-06-03 02:15:00,
2013-06-02 22:25:00,75.7,70.0,29.80,SSW,210,1.0,0.0,82,0.00,,,0.12,oem by Ross Wheeler,2013-06-03 02:25:00,
2013-06-02 22:30:00,75.0,70.0,29.79,South,189,0.0,0.0,85,0.00,,,0.12,oem by Ross Wheeler,2013-06-03 02:30:00,
2013-06-02 22:40:00,74.3,71.0,29.79,South,185,1.0,0.0,88,0.00,,,0.12,oem by Ross Wheeler,2013-06-03 02:40:00,
2013-06-02 22:45:00,74.1,71.0,29.79,SW,216,0.0,0.0,89,0.00,,,0.12,oem by Ross Wheeler,2013-06-03 02:45:00,
2013-06-02 22:55:00,73.8,71.0,29.79,SSW,193,1.0,0.0,90,0.00,,,0.12,oem by Ross Wheeler,2013-06-03 02:55:00,
2013-06-02 23:01:00,73.4,70.0,29.79,SSW,198,2.0,0.0,90,0.00,,,0.12,oem by Ross Wheeler,2013-06-03 03:01:00,
2013-06-02 23:10:00,73.1,70.0,29.79,WNW,302,1.0,0.0,91,0.00,,,0.17,oem by Ross Wheeler,2013-06-03 03:10:00,
2013-06-02 23:15:00,72.5,70.0,29.79,WSW,243,6.0,0.0,90,0.00,,,0.18,oem by Ross Wheeler,2013-06-03 03:15:00,
2013-06-02 23:25:00,72.0,69.0,29.79,WSW,255,3.0,0.0,90,0.00,,,0.18,oem by Ross Wheeler,2013-06-03 03:25:00,
2013-06-02 23:30:00,71.7,69.0,29.79,WNW,303,1.0,0.0,91,0.00,,,0.19,oem by Ross Wheeler,2013-06-03 03:30:00,
2013-06-02 23:40:00,71.3,69.0,29.79,WSW,240,1.0,0.0,91,0.00,,,0.20,oem by Ross Wheeler,2013-06-03 03:40:00,
2013-06-02 23:45:00,71.2,69.0,29.79,South,188,3.0,0.0,91,0.00,,,0.20,oem by Ross Wheeler,2013-06-03 03:45:00,
2013-06-02 23:55:00,71.2,69.0,29.79,SSW,193,0.0,0.0,91,0.00,,,0.20,oem by Ross Wheeler,2013-06-03 03:55:00,